Location: Berlin
(42.3812°N, 71.6370°W)
Time: 04:48:31
(UTC+00:00)

Cosmos 1943 Rocket - Pass Details

Date: 15 November 2025
Orbit: 812 x 841 km, 71.0° (Epoch: 09 December)

Event Time Altitude Azimuth Distance (km) Brightness Sun altitude
Exits shadow 08:46:29 20° 163° (SSE) 1,787 4.0 -31.6°
Drops below altitude 10° 08:48:06 10° 162° (SSE) 2,392 4.7 -31.3°
Sets 08:50:30 0° 161° (SSE) 3,319 5.5 -30.8°
